| time (UTC) | temp C | wind direction | speed KPH | gust KPH | rain 1hr cm | rain 24hr cm | rain mn cm | humidity % | barometer mb |
| 20260506150705 | 20 | 229 | 6.4 | 14.5 | 0.00 | 0.79 | 0.76 | 57 | 1005.8 |
| 20260506150204 | 20 | 175 | 6.4 | 14.5 | 0.00 | 0.79 | 0.76 | 55 | 1005.9 |
| 20260506145703 | 20 | 235 | 6.4 | 14.5 | 0.00 | 0.79 | 0.76 | 57 | 1005.8 |
| 20260506144704 | 20 | 173 | 4.8 | 19.3 | 0.00 | 0.79 | 0.76 | 56 | 1006.0 |
| 20260506143704 | 21 | 234 | 8.0 | 19.3 | 0.00 | 0.79 | 0.76 | 56 | 1006.0 |
| 20260506143204 | 21 | 222 | 6.4 | 20.9 | 0.00 | 0.79 | 0.76 | 56 | 1006.2 |
| 20260506142704 | 21 | 212 | 8.0 | 20.9 | 0.00 | 0.79 | 0.76 | 54 | 1006.2 |
| 20260506142204 | 21 | 248 | 9.7 | 20.9 | 0.00 | 0.79 | 0.76 | 54 | 1006.2 |
| 20260506141704 | 21 | 290 | 8.0 | 16.1 | 0.00 | 0.79 | 0.76 | 55 | 1006.2 |
| 20260506141204 | 21 | 173 | 6.4 | 16.1 | 0.00 | 0.79 | 0.76 | 53 | 1006.3 |
| 20260506140704 | 21 | 315 | 6.4 | 17.7 | 0.00 | 0.79 | 0.76 | 55 | 1006.3 |
| 20260506140204 | 21 | 237 | 9.7 | 17.7 | 0.00 | 0.79 | 0.76 | 55 | 1006.3 |
| 20260506135204 | 21 | 243 | 4.8 | 27.4 | 0.00 | 0.79 | 0.76 | 54 | 1006.5 |
| 20260506133704 | 21 | 286 | 6.4 | 22.5 | 0.00 | 0.79 | 0.76 | 55 | 1006.5 |
| 20260506132704 | 21 | 247 | 9.7 | 22.5 | 0.00 | 0.79 | 0.76 | 55 | 1006.3 |
| 20260506132204 | 21 | 242 | 6.4 | 25.7 | 0.00 | 0.79 | 0.76 | 57 | 1006.4 |
| 20260506131704 | 21 | 226 | 9.7 | 25.7 | 0.00 | 0.79 | 0.76 | 57 | 1006.5 |
| 20260506130704 | 21 | 310 | 12.9 | 24.1 | 0.00 | 0.79 | 0.76 | 55 | 1006.5 |
| 20260506130204 | 21 | 292 | 9.7 | 19.3 | 0.00 | 0.79 | 0.76 | 56 | 1006.6 |
| 20260506125704 | 21 | 213 | 9.7 | 19.3 | 0.00 | 0.79 | 0.76 | 57 | 1006.7 |
| 20260506125204 | 21 | 290 | 6.4 | 24.1 | 0.00 | 0.79 | 0.76 | 58 | 1006.6 |
| 20260506124703 | 21 | 196 | 8.0 | 24.1 | 0.00 | 0.79 | 0.76 | 58 | 1006.6 |
| 20260506124204 | 21 | 252 | 9.7 | 24.1 | 0.00 | 0.79 | 0.76 | 57 | 1006.7 |
| 20260506123704 | 21 | 225 | 8.0 | 22.5 | 0.00 | 0.79 | 0.76 | 58 | 1006.7 |
| 20260506123206 | 21 | 313 | 9.7 | 22.5 | 0.00 | 0.79 | 0.76 | 59 | 1006.9 |
| 20260506122704 | 21 | 211 | 9.7 | 22.5 | 0.00 | 0.79 | 0.76 | 58 | 1006.8 |
| 20260506121704 | 20 | 289 | 8.0 | 19.3 | 0.00 | 0.79 | 0.76 | 61 | 1006.8 |
| 20260506121204 | 20 | 214 | 8.0 | 17.7 | 0.00 | 0.79 | 0.76 | 62 | 1006.9 |
| 20260506120705 | 20 | 241 | 6.4 | 17.7 | 0.00 | 0.79 | 0.76 | 62 | 1006.8 |
| 20260506120204 | 20 | 218 | 6.4 | 17.7 | 0.00 | 0.79 | 0.76 | 63 | 1006.9 |
| 20260506115704 | 20 | 242 | 6.4 | 17.7 | 0.00 | 0.79 | 0.76 | 63 | 1006.8 |
| 20260506114704 | 20 | 252 | 8.0 | 20.9 | 0.00 | 0.79 | 0.76 | 64 | 1006.8 |
| 20260506114204 | 20 | 292 | 9.7 | 17.7 | 0.00 | 0.79 | 0.76 | 64 | 1006.7 |
| 20260506113704 | 20 | 273 | 8.0 | 17.7 | 0.00 | 0.79 | 0.76 | 64 | 1006.7 |
| 20260506112704 | 19 | 288 | 6.4 | 25.7 | 0.00 | 0.79 | 0.76 | 67 | 1006.6 |
| 20260506112204 | 18 | 266 | 8.0 | 25.7 | 0.00 | 0.79 | 0.76 | 69 | 1006.6 |
| 20260506111204 | 18 | 288 | 8.0 | 17.7 | 0.00 | 0.79 | 0.76 | 67 | 1006.5 |
| 20260506110704 | 18 | 258 | 6.4 | 16.1 | 0.00 | 0.79 | 0.76 | 68 | 1006.6 |
| 20260506110204 | 18 | 211 | 6.4 | 17.7 | 0.00 | 0.79 | 0.76 | 69 | 1006.6 |
| 20260506105704 | 18 | 276 | 6.4 | 17.7 | 0.00 | 0.79 | 0.76 | 70 | 1006.7 |
| 20260506105205 | 18 | 244 | 6.4 | 17.7 | 0.00 | 0.79 | 0.76 | 72 | 1006.7 |
| 20260506104705 | 18 | 187 | 4.8 | 17.7 | 0.00 | 0.79 | 0.76 | 70 | 1006.6 |
| 20260506104204 | 18 | 184 | 4.8 | 16.1 | 0.00 | 0.79 | 0.76 | 73 | 1006.6 |
| 20260506103704 | 17 | 266 | 6.4 | 14.5 | 0.00 | 0.79 | 0.76 | 73 | 1006.5 |
| 20260506102204 | 18 | 147 | 6.4 | 17.7 | 0.00 | 0.79 | 0.76 | 72 | 1006.6 |
| 20260506101704 | 18 | 221 | 8.0 | 17.7 | 0.00 | 0.79 | 0.76 | 74 | 1006.6 |
| 20260506101204 | 17 | 248 | 9.7 | 17.7 | 0.00 | 0.79 | 0.76 | 74 | 1006.6 |
| 20260506100705 | 17 | 252 | 6.4 | 17.7 | 0.00 | 0.79 | 0.76 | 76 | 1006.7 |
| 20260506094704 | 16 | 168 | 6.4 | 22.5 | 0.00 | 0.79 | 0.76 | 76 | 1006.8 |
| 20260506094203 | 16 | 251 | 8.0 | 22.5 | 0.00 | 0.79 | 0.76 | 76 | 1006.8 |
| 20260506093704 | 17 | 260 | 8.0 | 17.7 | 0.00 | 0.79 | 0.76 | 75 | 1006.7 |
| 20260506093204 | 17 | 218 | 8.0 | 19.3 | 0.00 | 0.79 | 0.76 | 77 | 1006.7 |
| 20260506092204 | 17 | 241 | 9.7 | 25.7 | 0.00 | 0.79 | 0.76 | 73 | 1006.6 |
| 20260506091704 | 17 | 284 | 11.3 | 25.7 | 0.00 | 0.79 | 0.76 | 76 | 1006.5 |
| 20260506090205 | 16 | 231 | 9.7 | 27.4 | 0.00 | 0.79 | 0.76 | 79 | 1006.5 |
| 20260506085704 | 16 | 203 | 11.3 | 27.4 | 0.00 | 0.79 | 0.76 | 78 | 1006.4 |
| 20260506084204 | 16 | 233 | 8.0 | 29.0 | 0.00 | 0.79 | 0.76 | 78 | 1006.3 |
| 20260506083704 | 16 | 140 | 11.3 | 29.0 | 0.00 | 0.79 | 0.76 | 79 | 1006.1 |
| 20260506083204 | 16 | 242 | 11.3 | 29.0 | 0.00 | 0.79 | 0.76 | 80 | 1006.0 |
| 20260506082704 | 16 | 229 | 9.7 | 27.4 | 0.00 | 0.79 | 0.76 | 80 | 1006.0 |
| 20260506082204 | 16 | 183 | 11.3 | 27.4 | 0.00 | 0.79 | 0.76 | 81 | 1006.0 |
| 20260506081204 | 16 | 211 | 8.0 | 24.1 | 0.00 | 0.79 | 0.76 | 80 | 1006.0 |
| 20260506080704 | 16 | 294 | 9.7 | 24.1 | 0.00 | 0.79 | 0.76 | 82 | 1005.8 |
| 20260506080204 | 15 | 240 | 12.9 | 24.1 | 0.00 | 0.79 | 0.76 | 81 | 1005.8 |
| 20260506072205 | 15 | 250 | 8.0 | 19.3 | 0.00 | 0.79 | 0.76 | 83 | 1005.6 |
| 20260506071705 | 15 | 224 | 8.0 | 22.5 | 0.00 | 0.79 | 0.76 | 84 | 1005.6 |
| 20260506071204 | 14 | 242 | 9.7 | 25.7 | 0.00 | 0.79 | 0.76 | 84 | 1005.5 |
| 20260506070704 | 14 | 209 | 11.3 | 25.7 | 0.00 | 0.79 | 0.76 | 85 | 1005.4 |
| 20260506070204 | 14 | 253 | 9.7 | 25.7 | 0.00 | 0.79 | 0.76 | 86 | 1005.5 |
| 20260506062204 | 13 | 214 | 9.7 | 25.7 | 0.00 | 0.79 | 0.76 | 88 | 1005.7 |
| 20260506061704 | 13 | 185 | 9.7 | 25.7 | 0.00 | 0.79 | 0.76 | 88 | 1005.6 |
| 20260506061203 | 13 | 271 | 11.3 | 24.1 | 0.00 | 0.79 | 0.76 | 87 | 1005.6 |
| 20260506060704 | 13 | 244 | 11.3 | 29.0 | 0.00 | 0.79 | 0.76 | 88 | 1005.5 |
| 20260506060204 | 13 | 238 | 11.3 | 29.0 | 0.00 | 0.79 | 0.76 | 88 | 1005.5 |
| 20260506050704 | 13 | 256 | 11.3 | 24.1 | 0.00 | 0.79 | 0.76 | 93 | 1005.2 |
| 20260506050204 | 12 | 227 | 9.7 | 24.1 | 0.00 | 0.79 | 0.76 | 93 | 1004.8 |
| 20260506044704 | 12 | 229 | 9.7 | 22.5 | 0.00 | 0.79 | 0.76 | 94 | 1004.8 |
| 20260506044204 | 12 | 240 | 9.7 | 20.9 | 0.00 | 0.79 | 0.76 | 95 | 1004.8 |
| 20260506043704 | 12 | 256 | 8.0 | 20.9 | 0.00 | 0.79 | 0.76 | 95 | 1004.6 |
| 20260506043207 | 12 | 263 | 8.0 | 22.5 | 0.00 | 0.79 | 0.76 | 95 | 1004.6 |
| 20260506042704 | 12 | 178 | 8.0 | 22.5 | 0.00 | 0.79 | 0.76 | 96 | 1004.7 |
| 20260506042203 | 12 | 206 | 6.4 | 14.5 | 0.00 | 0.79 | 0.76 | 96 | 1004.7 |
| 20260506041704 | 12 | 193 | 6.4 | 12.9 | 0.00 | 0.79 | 0.76 | 96 | 1004.8 |
| 20260506041204 | 12 | 262 | 4.8 | 14.5 | 0.00 | 0.79 | 0.76 | 96 | 1004.9 |
| 20260506040704 | 12 | 257 | 4.8 | 17.7 | 0.00 | 0.79 | 0.76 | 96 | 1004.7 |
| 20260506040204 | 11 | 253 | 4.8 | 17.7 | 0.00 | 0.79 | 0.76 | 96 | 1004.5 |
| 20260506035204 | 11 | 227 | 6.4 | 19.3 | 0.00 | 0.79 | 0.76 | 96 | 1004.6 |
| 20260506034704 | 11 | 254 | 6.4 | 19.3 | 0.00 | 0.79 | 0.76 | 96 | 1004.6 |
| 20260506034204 | 11 | 188 | 4.8 | 11.3 | 0.00 | 0.79 | 0.76 | 96 | 1004.6 |
| 20260506033204 | 11 | 228 | 3.2 | 14.5 | 0.00 | 0.79 | 0.76 | 96 | 1004.7 |
| 20260506032704 | 11 | 230 | 3.2 | 14.5 | 0.00 | 0.79 | 0.76 | 96 | 1004.7 |
| 20260506032204 | 11 | 221 | 3.2 | 19.3 | 0.00 | 0.79 | 0.76 | 96 | 1004.7 |
| 20260506031704 | 11 | 257 | 6.4 | 19.3 | 0.00 | 0.79 | 0.76 | 96 | 1004.7 |
| 20260506031204 | 11 | 225 | 8.0 | 19.3 | 0.00 | 0.79 | 0.76 | 96 | 1004.8 |
| 20260506030705 | 11 | 304 | 4.8 | 16.1 | 0.00 | 0.79 | 0.76 | 96 | 1004.9 |
| 20260506025704 | 11 | 229 | 4.8 | 14.5 | 0.00 | 0.79 | 0.76 | 96 | 1004.7 |
| 20260506024704 | 11 | 208 | 1.6 | 4.8 | 0.00 | 0.79 | 0.76 | 96 | 1004.8 |
| 20260506024204 | 11 | 26 | 0.0 | 3.2 | 0.03 | 0.79 | 0.76 | 96 | 1004.7 |
| 20260506023704 | 11 | 113 | 0.0 | 1.6 | 0.03 | 0.79 | 0.76 | 96 | 1004.7 |
| 20260506022704 | 11 | 134 | 0.0 | 6.4 | 0.03 | 0.79 | 0.76 | 96 | 1004.7 |
| 20260506022204 | 11 | 134 | 1.6 | 9.7 | 0.03 | 0.79 | 0.76 | 96 | 1004.9 |
| 20260506021704 | 11 | 246 | 3.2 | 9.7 | 0.03 | 0.79 | 0.76 | 96 | 1004.8 |
| 20260506021204 | 11 | 236 | 3.2 | 6.4 | 0.03 | 0.79 | 0.76 | 96 | 1004.8 |
| 20260506020704 | 11 | 238 | 3.2 | 6.4 | 0.03 | 0.79 | 0.76 | 96 | 1004.9 |
| 20260506015204 | 12 | 256 | 3.2 | 8.0 | 0.03 | 0.79 | 0.76 | 96 | 1004.7 |
| 20260506014704 | 12 | 280 | 4.8 | 8.0 | 0.00 | 0.79 | 0.74 | 96 | 1004.7 |
| 20260506014204 | 12 | 279 | 3.2 | 8.0 | 0.00 | 0.79 | 0.74 | 96 | 1004.7 |
| 20260506013204 | 12 | 301 | 0.0 | 0.0 | 0.03 | 0.79 | 0.74 | 96 | 1004.8 |
| 20260506012704 | 12 | 264 | 0.0 | 0.0 | 0.05 | 0.79 | 0.74 | 96 | 1004.8 |
| 20260506012204 | 12 | 264 | 0.0 | 0.0 | 0.05 | 0.79 | 0.74 | 96 | 1004.9 |
| 20260506011704 | 12 | 275 | 0.0 | 0.0 | 0.05 | 0.79 | 0.74 | 96 | 1004.9 |
| 20260506010704 | 12 | 188 | 0.0 | 0.0 | 0.10 | 0.79 | 0.74 | 96 | 1005.0 |
| 20260506010204 | 12 | 188 | 0.0 | 4.8 | 0.10 | 0.79 | 0.74 | 96 | 1005.1 |
| 20260506005704 | 12 | 188 | 0.0 | 4.8 | 0.13 | 0.79 | 0.74 | 95 | 1005.3 |
| 20260506005204 | 12 | 188 | 0.0 | 9.7 | 0.15 | 0.79 | 0.74 | 95 | 1005.3 |
| 20260506004705 | 12 | 233 | 1.6 | 9.7 | 0.15 | 0.79 | 0.74 | 95 | 1005.4 |
| 20260506004204 | 12 | 173 | 3.2 | 9.7 | 0.18 | 0.79 | 0.74 | 95 | 1005.2 |
| 20260506003705 | 12 | 188 | 6.4 | 9.7 | 0.20 | 0.76 | 0.71 | 95 | 1005.1 |
| 20260506003204 | 12 | 171 | 4.8 | 9.7 | 0.23 | 0.74 | 0.71 | 95 | 1005.1 |
| 20260506002704 | 12 | 148 | 4.8 | 9.7 | 0.25 | 0.71 | 0.69 | 95 | 1005.2 |
| 20260506002204 | 12 | 134 | 3.2 | 8.0 | 0.30 | 0.71 | 0.69 | 94 | 1005.1 |
| 20260506001704 | 12 | 142 | 4.8 | 8.0 | 0.33 | 0.71 | 0.69 | 94 | 1005.3 |
| 20260506001204 | 12 | 129 | 4.8 | 8.0 | 0.30 | 0.71 | 0.66 | 94 | 1005.4 |
| 20260506000705 | 12 | 140 | 3.2 | 6.4 | 0.28 | 0.69 | 0.64 | 94 | 1005.7 |
| 20260506000205 | 12 | 154 | 3.2 | 4.8 | 0.28 | 0.66 | 0.61 | 94 | 1005.7 |
| 20260505235705 | 12 | 131 | 1.6 | 4.8 | 0.30 | 0.66 | 0.61 | 94 | 1005.8 |
| 20260505234704 | 12 | 134 | 1.6 | 6.4 | 0.33 | 0.61 | 0.58 | 93 | 1005.9 |
| 20260505234204 | 12 | 59 | 1.6 | 6.4 | 0.33 | 0.58 | 0.53 | 93 | 1005.8 |
| 20260505233704 | 12 | 338 | 1.6 | 8.0 | 0.30 | 0.56 | 0.51 | 93 | 1005.9 |
| 20260505233204 | 12 | 328 | 3.2 | 8.0 | 0.25 | 0.51 | 0.46 | 93 | 1006.0 |
| 20260505232704 | 13 | 327 | 1.6 | 9.7 | 0.28 | 0.46 | 0.43 | 92 | 1006.1 |
| 20260505231704 | 13 | 304 | 4.8 | 16.1 | 0.30 | 0.41 | 0.36 | 92 | 1006.2 |
| 20260505231204 | 13 | 317 | 6.4 | 24.1 | 0.33 | 0.41 | 0.36 | 92 | 1006.1 |
| 20260505230704 | 13 | 314 | 8.0 | 25.7 | 0.33 | 0.38 | 0.33 | 92 | 1005.9 |
| 20260505230204 | 13 | 309 | 12.9 | 25.7 | 0.33 | 0.36 | 0.33 | 92 | 1005.9 |
| 20260505225204 | 13 | 322 | 14.5 | 32.2 | 0.30 | 0.30 | 0.25 | 92 | 1006.0 |
| 20260505224704 | 13 | 306 | 17.7 | 32.2 | 0.28 | 0.28 | 0.23 | 91 | 1006.2 |
| 20260505224204 | 13 | 333 | 17.7 | 30.6 | 0.25 | 0.25 | 0.23 | 90 | 1006.4 |
| 20260505223204 | 14 | 286 | 12.9 | 30.6 | 0.23 | 0.23 | 0.20 | 90 | 1006.6 |
| 20260505222705 | 14 | 326 | 8.0 | 16.1 | 0.15 | 0.15 | 0.13 | 90 | 1006.8 |
| 20260505222204 | 14 | 292 | 6.4 | 11.3 | 0.13 | 0.13 | 0.08 | 90 | 1006.8 |
| 20260505221204 | 15 | 251 | 4.8 | 8.0 | 0.08 | 0.08 | 0.05 | 88 | 1006.7 |
| 20260505220704 | 15 | 257 | 4.8 | 8.0 | 0.05 | 0.05 | 0.00 | 87 | 1006.4 |
| 20260505220204 | 15 | 316 | 4.8 | 8.0 | 0.05 | 0.05 | 0.05 | 86 | 1006.3 |
| 20260505215704 | 15 | 295 | 3.2 | 6.4 | 0.00 | 0.00 | 0.00 | 85 | 1006.0 |
| 20260505214705 | 15 | 0 | 1.6 | 6.4 | 0.00 | 0.00 | 0.00 | 84 | 1005.8 |
| 20260505214204 | 15 | 5 | 1.6 | 8.0 | 0.00 | 0.00 | 0.00 | 83 | 1005.8 |
| 20260505213704 | 15 | 14 | 3.2 | 8.0 | 0.00 | 0.00 | 0.00 | 83 | 1005.6 |
| 20260505213204 | 15 | 87 | 3.2 | 11.3 | 0.00 | 0.00 | 0.00 | 82 | 1005.6 |
| 20260505212704 | 15 | 57 | 4.8 | 11.3 | 0.00 | 0.00 | 0.00 | 82 | 1005.5 |
| 20260505212204 | 15 | 11 | 4.8 | 11.3 | 0.00 | 0.00 | 0.00 | 81 | 1005.5 |
| 20260505211205 | 16 | 120 | 3.2 | 11.3 | 0.00 | 0.00 | 0.00 | 80 | 1005.5 |
| 20260505210204 | 16 | 50 | 4.8 | 11.3 | 0.00 | 0.00 | 0.00 | 79 | 1005.4 |
| 20260505205704 | 16 | 84 | 3.2 | 8.0 | 0.00 | 0.00 | 0.00 | 79 | 1005.5 |
| 20260505205204 | 16 | 73 | 3.2 | 8.0 | 0.00 | 0.00 | 0.00 | 79 | 1005.5 |
| 20260505204704 | 16 | 73 | 3.2 | 16.1 | 0.00 | 0.00 | 0.00 | 79 | 1005.6 |
| 20260505204204 | 16 | 67 | 4.8 | 16.1 | 0.00 | 0.00 | 0.00 | 78 | 1005.6 |
| 20260505203704 | 16 | 75 | 6.4 | 16.1 | 0.00 | 0.00 | 0.00 | 78 | 1005.6 |
| 20260505203204 | 16 | 97 | 4.8 | 16.1 | 0.00 | 0.00 | 0.00 | 78 | 1005.8 |
| 20260505202704 | 16 | 71 | 6.4 | 16.1 | 0.00 | 0.00 | 0.00 | 78 | 1005.9 |
| 20260505202204 | 16 | 139 | 6.4 | 12.9 | 0.00 | 0.00 | 0.00 | 78 | 1005.8 |
| 20260505201704 | 16 | 84 | 4.8 | 16.1 | 0.00 | 0.00 | 0.00 | 78 | 1005.9 |
| 20260505201204 | 16 | 90 | 6.4 | 16.1 | 0.00 | 0.00 | 0.00 | 78 | 1005.9 |
| 20260505195705 | 16 | 102 | 6.4 | 12.9 | 0.00 | 0.00 | 0.00 | 77 | 1006.0 |
| 20260505195204 | 17 | 127 | 6.4 | 17.7 | 0.00 | 0.00 | 0.00 | 77 | 1006.1 |
| 20260505194704 | 17 | 32 | 6.4 | 17.7 | 0.00 | 0.00 | 0.00 | 77 | 1006.2 |
| 20260505193704 | 17 | 106 | 6.4 | 14.5 | 0.00 | 0.00 | 0.00 | 76 | 1006.4 |
| 20260505193205 | 17 | 79 | 8.0 | 16.1 | 0.00 | 0.00 | 0.00 | 76 | 1006.4 |
| 20260505192704 | 17 | 113 | 9.7 | 17.7 | 0.00 | 0.00 | 0.00 | 76 | 1006.5 |
| 20260505192204 | 17 | 86 | 9.7 | 17.7 | 0.00 | 0.00 | 0.00 | 76 | 1006.5 |
| 20260505191704 | 17 | 69 | 9.7 | 17.7 | 0.00 | 0.00 | 0.00 | 76 | 1006.4 |
| 20260505191205 | 17 | 88 | 8.0 | 16.1 | 0.00 | 0.00 | 0.00 | 76 | 1006.5 |
| 20260505190704 | 17 | 103 | 8.0 | 11.3 | 0.00 | 0.00 | 0.00 | 75 | 1006.5 |
| 20260505190205 | 17 | 91 | 4.8 | 11.3 | 0.00 | 0.00 | 0.00 | 75 | 1006.3 |
| 20260505185704 | 17 | 62 | 3.2 | 11.3 | 0.00 | 0.00 | 0.00 | 75 | 1006.2 |
| 20260505185204 | 17 | 51 | 4.8 | 11.3 | 0.00 | 0.00 | 0.00 | 74 | 1006.2 |
| 20260505184704 | 17 | 80 | 4.8 | 9.7 | 0.00 | 0.00 | 0.00 | 74 | 1006.1 |
| 20260505184204 | 17 | 83 | 4.8 | 9.7 | 0.00 | 0.00 | 0.00 | 74 | 1006.1 |
| 20260505183204 | 18 | 34 | 3.2 | 14.5 | 0.00 | 0.00 | 0.00 | 73 | 1006.2 |
| 20260505182704 | 18 | 36 | 4.8 | 14.5 | 0.00 | 0.00 | 0.00 | 72 | 1006.2 |
| 20260505182204 | 18 | 5 | 4.8 | 14.5 | 0.00 | 0.00 | 0.00 | 72 | 1006.3 |
| 20260505181704 | 18 | 105 | 4.8 | 9.7 | 0.00 | 0.00 | 0.00 | 72 | 1006.3 |
| 20260505181204 | 18 | 80 | 3.2 | 9.7 | 0.00 | 0.00 | 0.00 | 72 | 1006.4 |
| 20260505180704 | 18 | 112 | 3.2 | 16.1 | 0.00 | 0.00 | 0.00 | 71 | 1006.5 |
| 20260505180205 | 18 | 19 | 3.2 | 16.1 | 0.00 | 0.00 | 0.00 | 71 | 1006.6 |
| 20260505175705 | 18 | 37 | 4.8 | 16.1 | 0.00 | 0.00 | 0.00 | 71 | 1006.6 |
| 20260505175204 | 19 | 100 | 4.8 | 11.3 | 0.00 | 0.00 | 0.00 | 71 | 1006.4 |
| 20260505174204 | 19 | 98 | 4.8 | 14.5 | 0.00 | 0.00 | 0.00 | 70 | 1006.7 |
| 20260505173704 | 19 | 88 | 4.8 | 12.9 | 0.00 | 0.00 | 0.00 | 70 | 1006.8 |
| 20260505173204 | 19 | 94 | 4.8 | 14.5 | 0.00 | 0.00 | 0.00 | 70 | 1006.9 |
| 20260505171704 | 20 | 90 | 6.4 | 20.9 | 0.00 | 0.00 | 0.00 | 68 | 1006.9 |
| 20260505171205 | 20 | 101 | 6.4 | 16.1 | 0.00 | 0.00 | 0.00 | 68 | 1006.8 |
| 20260505170704 | 20 | 106 | 4.8 | 16.1 | 0.00 | 0.00 | 0.00 | 67 | 1007.0 |
| 20260505170205 | 20 | 61 | 4.8 | 12.9 | 0.00 | 0.00 | 0.00 | 67 | 1007.0 |
| 20260505165204 | 20 | 346 | 4.8 | 19.3 | 0.00 | 0.00 | 0.00 | 67 | 1006.8 |
| 20260505164704 | 20 | 14 | 4.8 | 19.3 | 0.00 | 0.00 | 0.00 | 67 | 1006.8 |
| 20260505164204 | 20 | 97 | 4.8 | 19.3 | 0.00 | 0.00 | 0.00 | 67 | 1006.8 |
| 20260505163704 | 20 | 9 | 6.4 | 14.5 | 0.00 | 0.00 | 0.00 | 68 | 1006.8 |
| 20260505163204 | 20 | 77 | 4.8 | 14.5 | 0.00 | 0.00 | 0.00 | 67 | 1006.8 |
| 20260505162704 | 20 | 92 | 4.8 | 14.5 | 0.00 | 0.00 | 0.00 | 67 | 1006.8 |
| 20260505162204 | 20 | 42 | 4.8 | 14.5 | 0.00 | 0.00 | 0.00 | 67 | 1006.8 |
| 20260505161704 | 21 | 94 | 6.4 | 14.5 | 0.00 | 0.00 | 0.00 | 66 | 1006.8 |
| 20260505161204 | 21 | 53 | 6.4 | 16.1 | 0.00 | 0.00 | 0.00 | 66 | 1006.9 |
| 20260505160704 | 21 | 28 | 4.8 | 19.3 | 0.00 | 0.00 | 0.00 | 65 | 1006.9 |
| 20260505160204 | 21 | 53 | 6.4 | 19.3 | 0.00 | 0.00 | 0.00 | 65 | 1007.0 |
| 20260505152704 | 21 | 351 | 6.4 | 17.7 | 0.00 | 0.00 | 0.00 | 61 | 1007.4 |
| 20260505152204 | 22 | 54 | 8.0 | 17.7 | 0.00 | 0.00 | 0.00 | 61 | 1007.5 |